Weather History for Vicksburg, MS

Change the Weather History Date:

Sunday, November 11, 2012

  Actual Average Record
Temperature  
Mean Temperature 71 °F 57 °F  
Max Temperature 81 °F 69 °F 82 °F (2003)
Min Temperature 60 °F 44 °F 20 °F (1953)
Degree Days  
Heating Degree Days 0 9  
Month to date heating degree days 92 82  
Since 1 July heating degree days 247 184  
Cooling Degree Days 6 1  
Month to date cooling degree days 9 12  
Year to date cooling degree days 2397 2221  
Growing Degree Days 20 (Base 50)    
Moisture  
Dew Point 60 °F    
Average Humidity 68    
Maximum Humidity 90    
Minimum Humidity 45    
Precipitation  
Precipitation 0.69 in 0.14 in 1.15 in (1974)
Month to date precipitation 1.50 1.52  
Year to date precipitation 45.79 45.65  
Sea Level Pressure  
Sea Level Pressure 30.09 in    
Wind  
Wind Speed 14 mph (South)    
Max Wind Speed 25 mph    
Max Gust Speed 37 mph    
Visibility 8 miles    
Events Rain    
T = Trace of Precipitation, MM = Missing Value Source: NWS Daily Summary

Daily Weather History Graph

Daily Weather History Graph

Search for Another Location

Airport:

Trip Planner

Search our weather history database for the weather conditions in past years. The results will help you decide how hot, cold, wet, or windy it might be!

Date:

Astronomy

Nov. 11, 2012 Rise Set
Actual Time 6:30 AM CST 5:05 PM CST
Civil Twilight 6:04 AM CST 5:31 PM CST
Nautical Twilight 5:35 AM CST 6:00 PM CST
Astronomical Twilight 5:06 AM CST 6:30 PM CST
Moon 3:51 AM CST (11/11) 3:24 PM CST (11/11)
Length of Visible Light 11h 27m
Length of Day
10h 35m
Waning Crescent, 7% of the Moon is Illuminated
Nov 11
Waning Crescent
Nov 13
New
Nov 20
First Quarter
Nov 28
Full
Dec 6
Last Quarter

Hourly Weather History & Observations

Time (CST) Temp. Heat Index Dew Point Humidity Pressure Visibility Wind Dir Wind Speed Gust Speed Precip Events Conditions
12:53 AM 64.0 °F - 54.0 °F 70% 30.14 in 10.0 mi SSE 9.2 mph - N/A   Clear
1:53 AM 63.0 °F - 54.0 °F 72% 30.12 in 10.0 mi SSE 10.4 mph - N/A   Clear
2:53 AM 63.0 °F - 54.0 °F 72% 30.12 in 10.0 mi SSE 6.9 mph - N/A   Clear
3:53 AM 60.1 °F - 54.0 °F 80% 30.12 in 10.0 mi SE 5.8 mph - N/A   Clear
4:53 AM 61.0 °F - 55.0 °F 81% 30.12 in 10.0 mi SE 8.1 mph - N/A   Clear
5:53 AM 62.1 °F - 55.9 °F 80% 30.14 in 10.0 mi SE 8.1 mph - N/A   Overcast
6:53 AM 61.0 °F - 57.0 °F 87% 30.14 in 10.0 mi SE 10.4 mph - N/A   Clear
7:53 AM 64.0 °F - 59.0 °F 84% 30.15 in 10.0 mi SE 11.5 mph - N/A   Clear
8:53 AM 69.1 °F - 59.0 °F 70% 30.15 in 10.0 mi SSE 16.1 mph 23.0 mph N/A   Clear
9:53 AM 73.0 °F - 59.0 °F 61% 30.14 in 10.0 mi South 20.7 mph 25.3 mph N/A   Clear
10:53 AM 77.0 °F - 57.9 °F 52% 30.13 in 10.0 mi South 18.4 mph 31.1 mph N/A   Partly Cloudy
11:53 AM 77.0 °F - 57.9 °F 52% 30.10 in 10.0 mi SSE 20.7 mph 28.8 mph N/A   Mostly Cloudy
12:53 PM 79.0 °F - 57.9 °F 48% 30.06 in 10.0 mi SSE 19.6 mph 29.9 mph N/A   Scattered Clouds
1:53 PM 80.1 °F 80.6 °F 57.9 °F 47% 30.03 in 10.0 mi SSE 18.4 mph 26.5 mph N/A   Clear
2:53 PM 78.1 °F - 59.0 °F 52% 30.02 in 10.0 mi South 13.8 mph 23.0 mph N/A   Overcast
3:53 PM 77.0 °F - 57.9 °F 52% 30.03 in 10.0 mi SSE 15.0 mph 21.9 mph N/A   Overcast
4:53 PM 75.9 °F - 60.1 °F 58% 30.02 in 10.0 mi SSE 12.7 mph 24.2 mph N/A   Overcast
5:53 PM 73.9 °F - 60.1 °F 62% 30.04 in 10.0 mi SSE 18.4 mph 32.2 mph N/A   Overcast
7:53 PM 72.0 °F - 60.1 °F 66% 30.06 in 10.0 mi SSE 17.3 mph 21.9 mph N/A   Overcast
8:53 PM 72.0 °F - 62.1 °F 71% 30.08 in 10.0 mi South 20.7 mph 27.6 mph 0.00 in Rain Light Rain
9:53 PM 66.9 °F - 64.0 °F 90% 30.10 in 10.0 mi West 9.2 mph - 0.03 in   Overcast
10:03 PM 66.2 °F - 64.4 °F 94% 30.09 in 2.0 mi West 8.1 mph - 0.07 in Rain Heavy Rain
10:07 PM 66.2 °F - 64.4 °F 94% 30.08 in 1.2 mi West 10.4 mph - 0.10 in Rain Heavy Rain
10:15 PM 66.2 °F - 64.4 °F 94% 30.09 in 1.5 mi West 10.4 mph 17.3 mph 0.16 in Rain Heavy Rain
10:26 PM 66.2 °F - 66.2 °F 100% 30.10 in 1.0 mi SW 5.8 mph 17.3 mph 0.33 in Rain Heavy Rain
10:45 PM 66.2 °F - 66.2 °F 100% 30.08 in 3.0 mi SSW 5.8 mph - 0.44 in Rain Heavy Rain
10:53 PM 66.9 °F - 66.0 °F 97% 30.11 in 2.0 mi SSW 5.8 mph - 0.49 in Rain Heavy Rain
11:14 PM 66.2 °F - 66.2 °F 100% 30.08 in 3.0 mi South 11.5 mph - 0.13 in Rain Heavy Rain
11:53 PM 66.9 °F - 66.0 °F 97% 30.06 in 10.0 mi South 17.3 mph 24.2 mph 0.17 in Rain Light Rain